Date String (YYYY-MM-DD hh:mm:ss) UTC,Instrument flags,Ambient pressure (hPa),Sample flow (lpm),Bypass flow (lpm),Sample temperature (°C),Ambient temperature (°C),ASC tube jacket temperature (°C),LED temperature (°C),Box temperature (°C),Sample RH (%),Span deviation,Mass concentration (μg/m³),Mass concentration (μg/m³),Mass concentration (μg/m³)
DateTimeUTC,F1_M11,P_M11,Q1_M11,Q2_M11,T1_M11,T2_M11,T3_M11,T4_M11,T5_M11,U1_M11,ZSPAN_M11,X0_M11,X2_M11,X1_M11
2021-11-17 12:00:00,,0828.9,4.99,0.00,24.0,23.1,00.0,33.0,25.8,12.7,0000.0,0012.72,0003.22,0000.79
2021-11-17 12:01:00,,0829.0,5.01,0.00,24.0,23.1,00.0,33.0,25.8,12.7,0000.0,0012.44,0003.16,0000.78
2021-11-17 12:02:00,,0829.0,5.00,0.00,24.0,23.1,00.0,33.0,25.8,12.7,0000.0,0012.72,0003.17,0000.77
2021-11-17 12:03:00,,0829.0,5.00,0.00,24.0,23.1,00.0,33.0,25.8,12.6,0000.0,0012.80,0003.14,0000.76
2021-11-17 12:04:00,,0828.9,4.99,0.00,24.0,23.1,00.0,33.0,25.8,12.6,0000.0,0012.69,0003.16,0000.78
2021-11-17 12:05:00,,0828.8,5.00,0.00,24.0,23.1,00.0,33.0,25.8,12.6,0000.0,0012.37,0003.19,0000.79
2021-11-17 12:06:00,,0829.2,4.99,0.00,24.0,23.1,00.0,33.0,25.8,12.6,0000.0,0011.72,0003.24,0000.79
2021-11-17 12:07:00,,0829.0,4.99,0.00,24.0,23.1,00.0,33.0,25.8,12.5,0000.0,0011.57,0003.28,0000.81
2021-11-17 12:08:00,,0828.7,5.01,0.00,24.0,23.1,00.0,33.0,25.8,12.6,0000.0,0011.76,0003.33,0000.83
2021-11-17 12:09:00,,0828.7,4.99,0.00,24.0,23.1,00.0,33.0,25.8,12.6,0000.0,0011.05,0003.40,0000.84
2021-11-17 12:10:00,,0828.8,5.01,0.00,24.0,23.1,00.0,33.0,25.8,12.5,0000.0,0011.05,0003.42,0000.84
2021-11-17 12:11:00,,0828.9,5.00,0.00,24.0,23.1,00.0,33.0,25.8,12.5,0000.0,0011.05,0003.46,0000.85
2021-11-17 12:12:00,,0828.8,4.99,0.00,24.0,23.1,00.0,33.0,25.8,12.5,0000.0,0011.06,0003.49,0000.85
2021-11-17 12:13:00,,0828.8,5.01,0.00,24.0,23.1,00.0,33.0,25.8,12.5,0000.0,0010.56,0003.46,0000.85
2021-11-17 12:14:00,,0828.6,4.99,0.00,24.0,23.1,00.0,33.0,25.7,12.4,0000.0,0010.25,0003.45,0000.86
2021-11-17 12:15:00,,0828.5,5.00,0.00,24.0,23.1,00.0,33.0,25.7,12.5,0000.0,0010.63,0003.37,0000.85
2021-11-17 12:16:00,,0828.8,5.01,0.00,24.0,23.1,00.0,33.0,25.7,12.4,0000.0,0010.89,0003.38,0000.84
2021-11-17 12:17:00,,0828.8,4.99,0.00,24.0,23.1,00.0,33.0,25.8,12.5,0000.0,0011.13,0003.35,0000.83
2021-11-17 12:18:00,,0829.2,5.01,0.00,23.9,23.1,00.0,33.0,25.7,12.5,0000.0,0011.08,0003.32,0000.81
2021-11-17 12:19:00,,0829.3,4.98,0.00,24.0,23.1,00.0,33.0,25.7,12.5,0000.0,0010.55,0003.27,0000.79
2021-11-17 12:20:00,,0829.3,5.01,0.00,24.0,23.1,00.0,33.0,25.7,12.6,0000.0,0010.05,0003.18,0000.79
2021-11-17 12:21:00,,0828.8,4.99,0.00,24.0,23.1,00.0,33.0,25.7,12.6,0000.0,0010.12,0003.14,0000.79
2021-11-17 12:22:00,,0828.7,5.02,0.00,23.9,23.0,00.0,33.0,25.7,12.6,0000.0,0009.96,0003.10,0000.79
2021-11-17 12:23:00,,0828.8,4.99,0.00,23.9,23.1,00.0,33.0,25.7,12.5,0000.0,0010.68,0003.17,0000.80
2021-11-17 12:24:00,,0829.0,5.00,0.00,23.9,23.1,00.0,32.9,25.7,12.6,0000.0,0010.81,0003.17,0000.80
2021-11-17 12:25:00,,0828.9,5.01,0.00,23.9,23.0,00.0,33.0,25.7,12.6,0000.0,0010.95,0003.19,0000.80
2021-11-17 12:26:00,,0828.9,4.99,0.00,23.9,23.0,00.0,32.9,25.7,12.6,0000.0,0010.77,0003.21,0000.81
2021-11-17 12:27:00,,0828.9,4.98,0.00,23.9,23.0,00.0,32.9,25.7,12.6,0000.0,0010.54,0003.15,0000.81
2021-11-17 12:28:00,,0829.0,5.00,0.00,23.9,23.0,00.0,32.9,25.7,12.6,0000.0,0010.38,0003.18,0000.83
2021-11-17 12:29:00,,0829.1,5.01,0.00,23.9,23.0,00.0,32.9,25.7,12.7,0000.0,0010.66,0003.20,0000.86
2021-11-17 12:30:00,,0829.1,5.01,0.00,23.9,23.0,00.0,32.9,25.7,12.7,0000.0,0010.63,0003.20,0000.89
2021-11-17 12:31:00,,0829.1,4.99,0.00,23.9,23.0,00.0,32.9,25.7,12.6,0000.0,0010.69,0003.21,0000.89
2021-11-17 12:32:00,,0829.1,5.00,0.00,23.9,23.0,00.0,32.9,25.7,12.7,0000.0,0010.46,0003.23,0000.90
2021-11-17 12:33:00,,0829.0,5.01,0.00,23.9,23.0,00.0,32.9,25.7,12.7,0000.0,0010.48,0003.23,0000.91
2021-11-17 12:34:00,,0829.1,4.99,0.00,23.9,23.0,00.0,32.9,25.7,12.6,0000.0,0010.81,0003.20,0000.90
2021-11-17 12:35:00,,0829.2,5.00,0.00,23.9,23.0,00.0,32.9,25.7,12.6,0000.0,0011.09,0003.24,0000.92
2021-11-17 12:36:00,,0829.2,5.01,0.00,23.9,23.0,00.0,32.9,25.7,12.7,0000.0,0011.11,0003.25,0000.92
2021-11-17 12:37:00,,0829.1,5.00,0.00,23.9,23.0,00.0,32.9,25.7,12.7,0000.0,0011.12,0003.28,0000.91
2021-11-17 12:38:00,,0829.1,5.00,0.00,23.9,23.0,00.0,32.9,25.7,12.7,0000.0,0011.10,0003.34,0000.91
2021-11-17 12:39:00,,0829.0,4.99,0.00,23.9,23.0,00.0,32.9,25.7,12.7,0000.0,0011.54,0003.38,0000.91
2021-11-17 12:40:00,,0829.0,5.01,0.00,23.9,23.0,00.0,32.9,25.7,12.8,0000.0,0011.31,0003.35,0000.89
2021-11-17 12:41:00,,0829.1,4.99,0.00,23.9,23.0,00.0,32.9,25.7,12.8,0000.0,0011.27,0003.36,0000.88
2021-11-17 12:42:00,,0829.1,5.00,0.00,23.9,23.0,00.0,32.9,25.7,12.8,0000.0,0011.23,0003.39,0000.87
2021-11-17 12:43:00,,0829.0,5.01,0.00,23.9,23.0,00.0,32.9,25.6,12.9,0000.0,0011.31,0003.39,0000.88
2021-11-17 12:44:00,,0829.1,5.00,0.00,23.9,23.0,00.0,32.9,25.6,12.9,0000.0,0011.40,0003.40,0000.88
2021-11-17 12:45:00,,0829.1,5.00,0.00,23.9,22.9,00.0,32.9,25.6,12.9,0000.0,0010.77,0003.39,0000.89
2021-11-17 12:46:00,,0829.1,5.00,0.00,23.9,22.9,00.0,32.9,25.6,12.9,0000.0,0010.68,0003.40,0000.88
2021-11-17 12:47:00,,0829.1,5.00,0.00,23.9,23.0,00.0,32.9,25.6,13.0,0000.0,0011.28,0003.41,0000.87
2021-11-17 12:48:00,,0829.1,5.00,0.00,23.9,23.0,00.0,32.9,25.6,13.0,0000.0,0011.43,0003.41,0000.86
2021-11-17 12:49:00,,0829.1,5.02,0.00,23.9,22.9,00.0,32.9,25.6,13.0,0000.0,0011.73,0003.36,0000.85
2021-11-17 12:50:00,,0829.0,4.99,0.00,23.9,22.9,00.0,32.9,25.6,13.0,0000.0,0012.06,0003.33,0000.85
2021-11-17 12:51:00,,0828.9,4.99,0.00,23.9,22.9,00.0,32.9,25.6,13.1,0000.0,0011.91,0003.35,0000.86
2021-11-17 12:52:00,,0828.9,5.01,0.00,23.8,23.0,00.0,32.9,25.6,13.1,0000.0,0012.15,0003.38,0000.87
2021-11-17 12:53:00,,0828.9,4.99,0.00,23.8,22.9,00.0,32.9,25.6,13.0,0000.0,0012.42,0003.38,0000.87
2021-11-17 12:54:00,,0828.9,5.01,0.00,23.8,22.9,00.0,32.9,25.6,13.0,0000.0,0012.29,0003.39,0000.87
2021-11-17 12:55:00,,0828.9,4.99,0.00,23.8,22.9,00.0,32.9,25.6,13.0,0000.0,0012.31,0003.43,0000.87
2021-11-17 12:56:00,,0829.0,5.02,0.00,23.8,22.9,00.0,32.9,25.6,13.0,0000.0,0012.24,0003.46,0000.86
2021-11-17 12:57:00,,0829.0,5.00,0.00,23.8,22.9,00.0,32.9,25.6,13.1,0000.0,0011.95,0003.43,0000.88
2021-11-17 12:58:00,,0829.0,4.99,0.00,23.8,22.8,00.0,32.8,25.5,13.1,0000.0,0010.99,0003.43,0000.89
2021-11-17 12:59:00,,0829.0,5.00,0.00,23.8,22.8,00.0,32.8,25.5,13.1,0000.0,0010.66,0003.42,0000.90
